Terug naar catalogus

CZ-3C DEB

ActiefGTO
NORAD 40831·DEBRIS·🇨🇳 China

Gelanceerd Oct 31, 2010 vanaf Xichang Satellite Launch Center

Loading…

TLE

VerouderdSource: Space-Track

Epoch: Sep 4, 2026, 19:01 UTC

1 40831U 10057AY  26247.79294595  .00000064  00000-0  29525-3 0  9996
2 40831  20.1285  95.9624 7185501 163.7677 244.6463  2.20873098  2285

Volg CZ-3C DEB in realtime met AllMySat

Download on the App Store